Location: Unspecified
(0.0000°N, 0.0000°E)
Time: 22:02:26
(UTC+00:00)

FALCON 9 R/B - Visible Passes

Search period start: 08 September 2024 00:00
Search period end: 18 September 2024 00:00
Orbit: 379 x 69232 km, 24.1° (Epoch: 10 July)

Date Brightness Start Highest point End Pass type
(mag) Time Alt. Az. Time Alt. Az. Time Alt. Az.
08 Sep ? 02:22:10 10° E 08:35:06 83° N 14:52:02 10° WNW visible
08 Sep ? 18:54:27 10° WNW 19:03:35 60° NNE 19:04:50 34° E visible
09 Sep ? 03:14:37 10° E 09:17:21 77° N 15:32:11 10° ENE visible
10 Sep ? 03:58:46 10° E 09:46:39 62° NE 11:50:27 10° ENE visible
11 Sep ? 05:33:06 10° ENE 06:34:35 14° ENE 07:18:52 10° ENE visible
13 Sep ? 02:07:21 39° S 02:20:01 47° SE 13:39:25 10° W visible
14 Sep ? 02:01:38 10° E 08:15:08 82° N 14:35:46 10° WNW visible
14 Sep ? 18:18:19 10° WNW 18:29:28 58° NNE 18:32:10 12° E visible
15 Sep ? 02:58:00 10° E 09:02:29 75° N 14:44:20 10° ENE visible
16 Sep ? 03:48:11 10° ENE 08:56:41 54° NE 10:46:08 10° ENE visible
